Location: *
(51.1248°S, 108.4023°W)
Time: 00:45:36
(UTC+00:00)

Cosmos 1544 - Pass Details

Date: 31 October 2021
Orbit: 467 x 486 km, 82.5° (Epoch: 01 December)

Event Time Altitude Azimuth Distance (km) Brightness Sun altitude
Exits shadow 06:51:28 21° 111° (ESE) 1,155 5.1 -24.7°
Drops below altitude 10° 06:53:35 10° 143° (SE) 1,686 6.5 -24.7°
Sets 06:56:01 0° 158° (SSE) 2,581 7.9 -24.7°
